Wind_Speed
9 8 8 8 8 8 8 7 7 7 7 7 7 7 6 6 6 5 5 5 5 5 4 4 4 4 5 5 5 6 6 6 6 6 7 8 8 8 8 8 8 8 9
8 7 7 7 7 7 7 6 6 6 6 6 5 5 6 6 5 4 5 5 6 6 5 5 5 6 6 6 6 6 7 7 7 7 8 8 8 8 8 9 9 10 10
7 7 7 6 6 6 6 6 6 5 6 5 5 5 5 5 5 5 5 5 6 6 6 6 6 7 7 7 7 8 8 8 8 8 8 9 8 9 9 10 10 10 11
6 6 6 5 5 5 5 5 5 4 5 4 5 5 5 5 5 5 5 6 6 6 7 7 7 7 8 8 8 9 9 9 9 9 9 9 9 10 10 11 11 12 12
5 5 5 4 4 4 4 4 4 4 4 5 5 5 4 5 5 5 6 7 7 7 7 8 8 8 9 9 10 10 10 10 10 10 10 10 10 11 11 12 13 13 13
4 4 4 3 3 3 4 4 4 4 5 5 5 5 5 5 5 5 6 6 7 7 8 8 9 9 9 10 10 10 11 11 11 11 11 11 11 12 12 13 13 13 14
4 4 4 3 3 2 3 3 4 3 3 4 4 4 5 5 5 6 6 7 7 8 8 8 9 9 9 10 10 10 11 11 11 11 12 12 13 13 13 13 14 14 15
4 3 3 3 3 3 3 4 3 3 3 3 3 4 4 5 5 5 6 7 7 8 9 8 8 9 9 10 10 10 11 12 12 12 13 14 14 14 14 14 14 14 15
3 2 2 2 3 3 2 2 3 3 3 3 4 4 4 4 5 6 6 6 7 7 8 8 9 10 10 11 10 11 12 12 13 13 14 14 15 15 15 15 16 16 16
2 3 3 3 2 2 2 1 1 2 3 3 4 4 4 5 5 6 6 7 7 8 9 10 10 10 11 11 12 12 12 12 13 14 15 15 16 16 16 17 17 17 18
1 2 2 2 2 2 2 2 3 3 3 4 4 4 4 5 6 6 7 7 8 9 10 10 11 11 11 12 12 12 12 13 13 14 15 16 16 16 17 18 17 17 18
1 1 2 1 2 2 3 3 3 4 4 5 5 5 6 6 6 6 7 8 9 10 10 11 11 11 11 12 12 13 14 14 14 15 16 16 16 17 17 18 18 18 18
2 2 3 3 3 4 4 4 4 4 5 5 6 6 6 6 7 7 8 9 9 10 11 11 12 12 12 13 13 14 14 15 15 16 17 17 18 18 18 19 19 18 19
3 4 5 5 4 4 5 5 5 5 5 6 7 7 7 8 8 9 10 10 10 11 11 11 12 12 13 13 14 14 15 16 17 17 18 19 19 19 19 19 19 19 20
4 5 6 6 6 6 6 6 7 7 8 8 9 9 10 10 10 11 12 12 12 12 12 13 13 14 14 15 15 16 17 17 18 19 20 20 21 21 21 21 21 21 21
5 6 7 8 8 8 8 9 9 10 11 11 11 11 12 12 13 13 14 14 15 14 14 14 15 16 16 17 17 18 19 19 20 20 21 21 22 22 23 23 23 23 23
8 9 9 10 10 11 11 12 12 12 12 13 13 13 14 14 15 15 16 16 16 16 16 16 17 17 18 19 19 19 20 21 22 22 22 22 23 23 23 23 24 24 24
10 11 12 12 13 13 13 14 14 14 14 14 14 15 15 16 17 17 17 17 18 18 18 19 19 19 20 21 21 21 22 22 23 23 23 24 24 24 24 24 24 24 25
12 12 12 13 14 14 15 16 17 17 16 16 17 17 17 18 19 19 19 20 20 20 20 20 20 21 22 22 22 22 22 23 24 24 24 25 25 25 26 25 25 25 25
14 13 14 15 16 17 17 17 18 18 19 19 19 19 20 20 20 21 21 22 22 22 22 22 23 23 24 24 24 24 24 25 26 26 26 26 26 26 26 26 26 26 26
17 18 18 18 18 19 20 20 20 21 21 21 22 22 22 23 23 23 23 22 23 23 23 24 25 25 25 25 25 26 26 27 27 27 28 28 27 27 27 27 26 26 26
20 21 21 21 21 21 21 22 22 23 23 23 24 24 25 25 25 25 26 26 26 26 25 25 26 26 27 27 27 28 28 28 28 28 29 29 28 28 27 27 27 27 28
24 24 24 23 23 23 24 24 25 25 26 26 26 26 27 28 28 28 28 29 29 28 27 27 27 28 29 29 29 30 30 29 29 29 29 29 29 29 28 28 28 29 29
26 26 27 26 26 26 27 27 27 27 27 28 28 28 29 30 30 30 31 31 30 30 29 29 29 29 30 30 30 31 31 30 30 30 29 28 28 28 28 28 29 30 30
28 28 29 29 29 30 30 30 30 30 31 31 31 31 32 32 32 33 33 33 33 32 32 32 31 32 32 31 30 30 30 30 29 29 30 29 29 29 29 30 30 31 31
30 30 31 31 31 32 32 32 33 33 33 34 34 34 35 35 36 36 36 36 35 34 34 34 33 33 33 32 32 32 32 32 31 30 30 31 31 31 31 31 31 32 32
Wind_Direction
130 130 136 138 136 138 145 149 156 163 167 163 166 170 171 175 179 192 195 201 207 210 215 227 222 233 243 251 260 262 267 273 273 271 273 273 275 275 274 273 276 280 282
137 138 139 143 139 138 143 146 155 162 164 162 169 178 181 184 187 195 208 217 220 219 224 228 233 240 249 258 261 266 271 276 275 274 274 274 276 279 279 275 274 278 281
142 145 148 150 147 145 149 152 158 166 172 175 182 186 191 203 216 223 227 230 230 229 231 236 241 246 254 261 264 263 272 281 280 278 277 276 277 279 280 278 280 281 282
141 153 157 157 157 160 160 166 175 179 184 195 202 203 208 214 225 226 227 233 239 242 245 248 250 254 259 265 270 271 273 277 276 278 278 277 277 280 284 281 281 283 283
147 154 163 165 168 170 174 180 184 194 201 209 216 221 224 228 230 227 233 238 243 250 255 256 256 261 265 269 273 275 274 275 277 279 280 278 280 282 285 283 282 284 286
153 160 165 169 185 192 197 206 213 213 212 216 224 233 237 233 242 246 246 247 253 258 260 263 262 264 268 271 274 277 277 276 280 281 281 280 282 285 287 288 286 285 286
133 148 153 154 167 184 209 218 216 219 220 223 233 237 245 248 251 251 252 255 259 261 263 268 264 264 268 272 275 279 280 282 282 285 285 284 285 286 287 287 288 287 287
119 123 134 146 152 162 182 203 209 218 215 233 245 248 253 251 249 250 257 259 259 266 267 267 269 268 270 273 275 280 280 282 284 284 284 285 286 287 287 286 287 288 287
111 120 126 135 147 141 154 189 206 213 233 253 258 257 251 253 255 254 256 259 265 272 271 271 272 272 273 274 276 280 280 281 282 284 286 287 287 288 288 287 286 288 288
109 118 124 127 146 157 166 186 222 238 248 259 267 264 262 259 255 257 261 265 268 271 272 274 276 277 279 276 276 279 280 280 282 284 285 287 288 289 289 290 290 288 287
120 140 146 151 194 212 217 225 242 252 259 268 274 272 276 271 268 269 270 273 276 276 276 277 280 282 283 281 280 281 283 284 286 287 288 290 290 290 291 292 291 291 290
159 194 207 244 253 248 247 246 253 260 268 275 283 285 278 280 283 282 282 282 282 281 280 281 281 282 283 283 283 284 287 288 289 290 290 293 293 292 292 293 292 291 291
242 253 250 254 256 260 256 258 268 271 274 276 281 287 285 284 286 285 284 283 283 283 282 279 280 282 283 286 287 288 290 291 292 293 292 292 291 290 291 291 291 290 291
263 261 255 255 263 271 272 271 281 281 283 282 283 288 287 288 290 286 285 284 285 285 284 282 283 286 287 288 291 292 292 292 294 296 296 293 291 290 291 292 291 290 290
272 267 262 261 261 266 272 275 278 281 284 285 286 287 289 286 291 293 290 286 283 281 279 281 283 285 285 286 288 291 292 293 294 295 297 295 293 292 291 291 290 289 289
279 274 269 262 263 269 274 274 276 279 282 285 287 289 291 291 293 292 292 292 285 280 278 279 282 283 283 284 288 291 294 294 294 296 297 295 293 291 290 289 288 289 290
282 281 274 268 267 271 276 279 280 281 283 286 285 286 287 288 290 290 290 291 289 282 279 279 283 286 287 287 288 291 293 294 294 294 296 295 293 291 290 290 289 289 289
283 280 278 275 271 272 276 279 280 283 283 284 285 286 287 288 289 290 290 289 287 285 281 280 281 285 287 287 288 290 292 293 294 295 293 292 292 292 290 289 291 290 288
285 284 284 281 278 277 277 278 278 279 280 282 283 284 285 287 288 290 290 288 288 286 284 282 281 283 285 285 286 288 290 293 295 295 293 292 292 292 291 289 290 289 289
283 285 282 280 278 277 277 277 276 277 279 281 282 284 285 286 287 288 289 288 287 286 285 283 283 284 285 285 285 286 290 294 295 295 293 292 293 292 290 289 289 288 289
281 283 281 280 279 278 278 277 277 277 277 279 280 282 283 284 285 287 288 288 286 286 285 284 284 283 285 285 285 287 290 292 293 293 292 291 291 291 290 289 288 289 290
280 280 277 277 276 276 276 277 278 278 279 280 281 281 282 282 283 285 286 285 284 285 284 284 285 285 286 286 286 287 288 289 291 290 290 290 290 290 289 288 288 289 291
277 278 280 278 276 274 274 275 277 277 278 278 280 281 281 282 282 283 284 285 285 285 285 285 286 287 287 287 288 286 287 288 290 291 291 290 289 288 287 287 288 289 289
276 278 278 277 275 275 276 276 278 278 280 280 279 281 282 282 283 283 283 284 285 285 285 286 288 287 287 290 289 288 288 288 289 291 292 292 291 289 287 288 289 289 289
274 276 277 276 276 276 276 278 279 280 279 280 281 282 283 282 282 282 283 283 284 283 283 284 285 285 286 288 288 288 288 288 289 291 292 291 290 289 288 288 289 289 290
277 277 277 276 276 276 277 277 279 280 280 280 280 281 281 281 281 282 283 283 284 283 282 284 285 286 285 286 287 287 288 289 288 288 290 290 290 289 288 288 289 289 290
Height
5874 5875 5876 5877 5878 5879 5881 5881 5883 5884 5885 5886 5887 5889 5890 5891 5892 5893 5894 5895 5896 5896 5897 5898 5898 5899 5899 5899 5899 5899 5899 5899 5899 5899 5899 5899 5899 5898 5898 5898 5898 5898 5898
5876 5877 5878 5879 5880 5881 5882 5883 5884 5885 5886 5887 5888 5889 5890 5891 5892 5892 5893 5894 5895 5896 5896 5897 5898 5898 5898 5898 5898 5898 5898 5898 5897 5897 5897 5897 5897 5897 5896 5896 5896 5896 5896
5877 5878 5879 5880 5881 5882 5883 5884 5885 5886 5887 5887 5888 5889 5890 5891 5891 5892 5893 5894 5894 5895 5895 5896 5896 5897 5897 5897 5897 5897 5896 5896 5896 5896 5895 5895 5895 5895 5894 5894 5894 5894 5893
5878 5879 5880 5881 5882 5883 5884 5885 5886 5886 5887 5888 5888 5889 5890 5890 5891 5891 5892 5893 5893 5894 5894 5894 5895 5895 5895 5895 5895 5895 5895 5894 5894 5894 5893 5893 5893 5893 5892 5892 5892 5891 5891
5879 5880 5881 5882 5883 5884 5885 5885 5886 5886 5887 5887 5888 5889 5889 5890 5890 5890 5891 5891 5892 5893 5893 5893 5893 5893 5893 5893 5893 5892 5892 5892 5892 5892 5891 5891 5891 5890 5890 5889 5889 5888 5888
5880 5881 5882 5882 5883 5884 5884 5885 5886 5886 5887 5887 5888 5888 5888 5889 5889 5889 5890 5890 5891 5891 5891 5891 5891 5891 5891 5891 5891 5891 5890 5890 5890 5889 5889 5889 5888 5888 5887 5887 5886 5885 5885
5881 5881 5882 5883 5883 5884 5884 5885 5886 5886 5886 5887 5887 5887 5888 5888 5888 5888 5888 5889 5889 5889 5889 5889 5889 5889 5889 5889 5889 5889 5888 5888 5887 5887 5887 5886 5886 5885 5884 5884 5883 5882 5882
5882 5882 5883 5883 5884 5884 5884 5885 5885 5886 5886 5886 5887 5887 5887 5887 5887 5887 5887 5887 5888 5887 5887 5887 5887 5887 5887 5887 5887 5887 5886 5886 5885 5885 5884 5883 5883 5882 5881 5880 5879 5879 5878
5882 5883 5883 5884 5884 5884 5885 5885 5885 5886 5886 5886 5886 5886 5886 5886 5886 5886 5886 5886 5886 5886 5886 5886 5885 5885 5885 5885 5885 5884 5884 5883 5882 5882 5881 5880 5879 5878 5877 5876 5876 5875 5874
5883 5883 5884 5884 5884 5885 5885 5885 5885 5885 5886 5886 5885 5885 5885 5885 5885 5885 5885 5885 5885 5884 5884 5884 5883 5883 5883 5882 5882 5881 5881 5880 5879 5879 5878 5877 5876 5875 5874 5872 5871 5871 5870
5883 5884 5884 5884 5885 5885 5885 5885 5885 5885 5885 5885 5885 5884 5884 5884 5883 5884 5883 5883 5883 5883 5882 5882 5881 5881 5880 5880 5879 5879 5878 5877 5876 5875 5874 5873 5872 5871 5870 5869 5867 5866 5865
5883 5884 5884 5884 5884 5884 5884 5884 5884 5884 5884 5884 5884 5883 5883 5883 5882 5882 5882 5881 5881 5880 5880 5879 5879 5878 5878 5877 5876 5876 5875 5874 5873 5872 5871 5870 5868 5867 5866 5865 5863 5862 5861
5883 5883 5883 5883 5883 5884 5884 5884 5883 5883 5883 5883 5882 5882 5881 5881 5880 5880 5880 5879 5879 5878 5877 5877 5876 5875 5875 5874 5873 5872 5871 5870 5869 5868 5867 5866 5864 5863 5862 5860 5859 5858 5857
5883 5883 5882 5882 5882 5882 5882 5882 5882 5882 5881 5881 5881 5880 5880 5879 5878 5877 5877 5876 5876 5875 5875 5874 5873 5872 5871 5871 5870 5869 5867 5866 5865 5864 5863 5861 5860 5858 5857 5856 5854 5853 5852
5881 5881 5881 5881 5881 5881 5881 5881 5881 5880 5880 5879 5879 5878 5877 5876 5876 5875 5874 5873 5873 5872 5871 5871 5870 5869 5868 5867 5866 5865 5863 5862 5861 5859 5858 5856 5855 5853 5852 5851 5849 5848 5847
5880 5879 5879 5879 5879 5879 5879 5879 5879 5878 5878 5877 5876 5876 5875 5873 5873 5872 5871 5870 5869 5868 5868 5867 5866 5865 5864 5863 5861 5860 5859 5857 5856 5854 5852 5851 5849 5848 5846 5845 5844 5842 5841
5878 5877 5877 5877 5877 5877 5876 5876 5876 5875 5875 5874 5873 5872 5871 5870 5869 5868 5867 5866 5864 5864 5863 5863 5862 5860 5859 5858 5856 5855 5854 5852 5850 5849 5846 5845 5843 5842 5840 5839 5838 5836 5835
5876 5875 5875 5874 5874 5874 5873 5873 5872 5872 5871 5870 5869 5869 5868 5866 5865 5864 5862 5861 5860 5859 5858 5858 5857 5855 5854 5853 5851 5850 5848 5847 5845 5843 5841 5839 5837 5836 5834 5833 5831 5830 5828
5873 5872 5871 5871 5870 5870 5869 5869 5868 5868 5867 5866 5865 5864 5863 5862 5860 5859 5858 5856 5855 5854 5853 5852 5851 5850 5848 5847 5845 5844 5842 5840 5838 5836 5834 5833 5831 5829 5827 5826 5824 5823 5822
5869 5869 5868 5867 5866 5865 5865 5864 5863 5863 5862 5861 5860 5859 5858 5856 5855 5854 5852 5851 5850 5848 5847 5846 5845 5844 5842 5840 5839 5838 5836 5834 5832 5830 5828 5826 5824 5822 5820 5819 5817 5816 5815
5865 5864 5863 5862 5861 5860 5859 5859 5858 5857 5856 5855 5855 5853 5852 5851 5849 5848 5847 5845 5844 5842 5841 5840 5839 5837 5836 5834 5832 5831 5829 5828 5826 5823 5821 5819 5817 5815 5813 5812 5810 5809 5807
5860 5859 5857 5856 5856 5855 5854 5853 5852 5851 5850 5849 5848 5847 5846 5844 5843 5842 5840 5839 5837 5836 5834 5833 5831 5830 5829 5827 5825 5824 5822 5820 5818 5817 5814 5812 5810 5808 5806 5805 5803 5802 5800
5853 5852 5851 5850 5849 5848 5847 5846 5845 5844 5843 5842 5840 5839 5838 5837 5836 5835 5833 5832 5830 5829 5827 5826 5824 5823 5821 5819 5818 5816 5814 5812 5810 5808 5806 5804 5802 5800 5799 5797 5796 5794 5792
5846 5845 5844 5843 5842 5841 5840 5839 5838 5836 5835 5833 5832 5831 5830 5829 5828 5826 5825 5824 5823 5821 5819 5818 5816 5815 5813 5811 5809 5808 5806 5804 5802 5800 5798 5796 5794 5793 5791 5789 5788 5786 5784
5838 5837 5836 5835 5834 5833 5832 5831 5829 5828 5827 5826 5825 5823 5822 5821 5820 5818 5816 5815 5814 5813 5811 5809 5807 5806 5804 5802 5800 5799 5797 5795 5794 5792 5789 5788 5786 5784 5783 5781 5779 5777 5775
5829 5827 5827 5826 5825 5824 5823 5821 5820 5819 5818 5817 5815 5814 5812 5811 5810 5808 5806 5805 5804 5803 5801 5799 5798 5796 5795 5793 5791 5790 5788 5786 5785 5783 5781 5779 5777 5775 5774 5773 5770 5768 5766